Location: Palermo
(38.1157°N, 13.3613°E)
Time: 09:06:26
(UTC+01:00)

ISS - Visible Passes

Search period start: 22 January 2018 00:00
Search period end: 01 February 2018 00:00
Orbit: 402 x 407 km, 51.6° (Epoch: 22 January)

Date Brightness Start Highest point End Pass type
(mag) Time Alt. Az. Time Alt. Az. Time Alt. Az.
22 Jan -1.2 19:09:33 10° S 19:10:01 13° S 19:10:01 13° S visible
23 Jan -1.6 18:18:54 10° SSE 18:20:05 12° SE 18:20:25 11° ESE visible
23 Jan -0.4 19:52:57 10° WSW 19:53:06 11° WSW 19:53:06 11° WSW visible
24 Jan -3.4 19:00:39 10° SW 19:03:24 54° S 19:03:24 54° S visible
25 Jan -2.7 18:08:46 10° SSW 18:11:38 29° SE 18:13:37 16° E visible
25 Jan -0.9 19:45:13 10° W 19:46:17 17° W 19:46:17 17° W visible
26 Jan -3.2 18:52:28 10° WSW 18:55:38 49° NW 18:56:24 39° N visible
27 Jan -3.9 18:00:01 10° SW 18:03:16 82° SE 18:06:25 11° NE visible
27 Jan -1.0 19:37:58 10° WNW 19:39:05 14° NW 19:39:05 14° NW visible
28 Jan -1.9 18:44:48 10° W 18:47:31 24° NNW 18:49:02 17° N visible
29 Jan -2.8 17:51:55 10° WSW 17:55:01 39° NW 17:58:06 10° NE visible
29 Jan -0.8 19:31:20 10° NNW 19:31:34 10° NNW 19:31:34 10° NNW visible
30 Jan -1.3 18:37:36 10° WNW 18:39:29 14° NNW 18:41:22 10° NNE visible
